Total_Precipitation_Accumulation
0.01 0.00 0.01 0.02 0.02 0.02 0.01 0.00 0.00 0.00 0.00 0.00 0.00 0.00 0.01 0.03 0.10 0.13 0.20 0.35 0.52 0.49 0.29 0.19 0.12 0.09 0.09 0.10 0.08 0.05 0.03 0.02 0.02 0.03 0.03 0.03 0.03 0.03 0.02 0.03 0.05 0.05 0.03
0.00 0.00 0.00 0.01 0.01 0.01 0.03 0.01 0.00 0.00 0.00 0.00 0.00 0.00 0.01 0.02 0.06 0.11 0.21 0.33 0.38 0.39 0.42 0.38 0.29 0.24 0.15 0.12 0.09 0.06 0.04 0.03 0.02 0.02 0.02 0.01 0.02 0.02 0.02 0.05 0.08 0.07 0.04
0.00 0.00 0.01 0.04 0.05 0.01 0.01 0.01 0.01 0.01 0.00 0.00 0.00 0.00 0.00 0.01 0.02 0.05 0.09 0.16 0.12 0.07 0.14 0.28 0.37 0.37 0.31 0.22 0.15 0.06 0.03 0.03 0.04 0.05 0.04 0.02 0.01 0.01 0.02 0.05 0.06 0.07 0.05
0.00 0.00 0.02 0.08 0.12 0.04 0.01 0.02 0.03 0.02 0.01 0.00 0.00 0.00 0.00 0.00 0.00 0.00 0.02 0.02 0.01 0.00 0.01 0.02 0.05 0.14 0.28 0.34 0.26 0.10 0.03 0.02 0.02 0.04 0.06 0.04 0.02 0.02 0.03 0.05 0.03 0.03 0.04
0.01 0.01 0.02 0.06 0.09 0.09 0.07 0.05 0.04 0.03 0.02 0.00 0.00 0.00 0.00 0.00 0.00 0.00 0.00 0.00 0.00 0.00 0.00 0.00 0.00 0.00 0.02 0.07 0.12 0.13 0.09 0.04 0.02 0.02 0.02 0.02 0.02 0.02 0.03 0.03 0.01 0.01 0.01
0.07 0.06 0.03 0.03 0.04 0.16 0.26 0.12 0.10 0.08 0.05 0.00 0.00 0.00 0.00 0.00 0.00 0.00 0.00 0.00 0.00 0.00 0.00 0.00 0.00 0.00 0.00 0.00 0.01 0.04 0.07 0.06 0.03 0.02 0.02 0.01 0.01 0.01 0.01 0.01 0.00 0.00 0.01
0.24 0.20 0.12 0.07 0.07 0.17 0.24 0.20 0.24 0.18 0.08 0.01 0.02 0.04 0.01 0.00 0.00 0.00 0.00 0.00 0.00 0.00 0.00 0.00 0.00 0.00 0.00 0.00 0.00 0.00 0.02 0.04 0.04 0.03 0.02 0.01 0.00 0.01 0.01 0.02 0.01 0.00 0.01
0.36 0.29 0.21 0.17 0.17 0.22 0.27 0.27 0.34 0.28 0.14 0.04 0.06 0.16 0.09 0.03 0.00 0.00 0.00 0.00 0.00 0.00 0.00 0.00 0.00 0.00 0.00 0.00 0.00 0.00 0.00 0.01 0.05 0.06 0.04 0.02 0.01 0.01 0.01 0.03 0.03 0.02 0.01
0.46 0.35 0.28 0.26 0.25 0.21 0.24 0.30 0.32 0.30 0.23 0.10 0.04 0.11 0.20 0.17 0.04 0.00 0.00 0.00 0.00 0.00 0.00 0.00 0.00 0.00 0.00 0.00 0.00 0.00 0.00 0.00 0.03 0.07 0.07 0.04 0.02 0.01 0.01 0.02 0.03 0.05 0.04
0.49 0.47 0.38 0.37 0.33 0.23 0.21 0.25 0.25 0.27 0.29 0.20 0.09 0.04 0.05 0.09 0.07 0.04 0.01 0.00 0.00 0.00 0.00 0.00 0.00 0.00 0.00 0.00 0.00 0.00 0.00 0.00 0.01 0.03 0.06 0.05 0.04 0.04 0.02 0.02 0.03 0.05 0.08
0.51 0.50 0.47 0.47 0.41 0.32 0.21 0.24 0.30 0.33 0.27 0.22 0.15 0.09 0.05 0.03 0.02 0.08 0.10 0.03 0.00 0.00 0.00 0.00 0.00 0.00 0.00 0.00 0.00 0.00 0.00 0.00 0.00 0.01 0.03 0.04 0.05 0.05 0.05 0.05 0.05 0.06 0.07
0.60 0.53 0.44 0.46 0.46 0.43 0.35 0.32 0.36 0.41 0.37 0.36 0.25 0.14 0.09 0.05 0.02 0.05 0.12 0.11 0.03 0.00 0.00 0.00 0.00 0.00 0.00 0.00 0.00 0.00 0.00 0.00 0.00 0.00 0.01 0.02 0.02 0.03 0.05 0.09 0.09 0.08 0.07
0.59 0.67 0.57 0.51 0.50 0.48 0.43 0.42 0.45 0.44 0.43 0.48 0.38 0.22 0.15 0.07 0.02 0.01 0.05 0.08 0.09 0.03 0.00 0.00 0.00 0.00 0.00 0.00 0.00 0.00 0.00 0.00 0.00 0.00 0.00 0.01 0.01 0.00 0.02 0.04 0.09 0.13 0.14
0.53 0.65 0.66 0.59 0.57 0.59 0.56 0.50 0.51 0.46 0.40 0.40 0.39 0.32 0.31 0.18 0.07 0.02 0.04 0.14 0.20 0.16 0.08 0.01 0.00 0.00 0.00 0.00 0.00 0.00 0.00 0.00 0.00 0.00 0.00 0.00 0.00 0.00 0.00 0.01 0.04 0.06 0.08
0.30 0.38 0.45 0.48 0.53 0.58 0.58 0.55 0.54 0.49 0.40 0.39 0.40 0.38 0.33 0.24 0.13 0.05 0.02 0.07 0.19 0.26 0.26 0.16 0.04 0.00 0.00 0.00 0.00 0.00 0.00 0.00 0.00 0.00 0.01 0.01 0.00 0.00 0.00 0.00 0.00 0.01 0.01
0.11 0.18 0.26 0.29 0.35 0.47 0.55 0.58 0.59 0.57 0.49 0.43 0.42 0.43 0.42 0.35 0.27 0.15 0.07 0.04 0.08 0.20 0.29 0.24 0.10 0.00 0.00 0.00 0.00 0.00 0.00 0.00 0.00 0.00 0.00 0.01 0.01 0.00 0.00 0.00 0.00 0.00 0.00
0.06 0.10 0.17 0.21 0.23 0.29 0.42 0.57 0.64 0.62 0.56 0.50 0.45 0.44 0.44 0.36 0.35 0.26 0.17 0.11 0.09 0.15 0.26 0.21 0.09 0.02 0.01 0.00 0.00 0.00 0.00 0.00 0.00 0.00 0.00 0.01 0.01 0.01 0.00 0.00 0.00 0.00 0.00
0.04 0.05 0.12 0.19 0.21 0.23 0.28 0.40 0.52 0.55 0.54 0.53 0.49 0.42 0.40 0.35 0.33 0.29 0.24 0.19 0.16 0.14 0.21 0.24 0.11 0.04 0.01 0.00 0.00 0.00 0.00 0.00 0.00 0.00 0.00 0.00 0.01 0.01 0.00 0.00 0.00 0.00 0.00
0.04 0.04 0.08 0.14 0.20 0.21 0.23 0.26 0.33 0.40 0.42 0.41 0.41 0.38 0.33 0.28 0.26 0.26 0.25 0.20 0.17 0.15 0.18 0.25 0.15 0.05 0.02 0.00 0.00 0.00 0.00 0.00 0.00 0.00 0.00 0.00 0.00 0.00 0.00 0.00 0.00 0.00 0.00
0.04 0.04 0.09 0.10 0.10 0.11 0.15 0.20 0.24 0.26 0.28 0.27 0.27 0.24 0.21 0.18 0.17 0.19 0.22 0.24 0.23 0.22 0.23 0.28 0.21 0.08 0.03 0.02 0.00 0.00 0.00 0.00 0.00 0.00 0.00 0.00 0.00 0.00 0.00 0.00 0.00 0.00 0.00
0.05 0.05 0.07 0.06 0.05 0.06 0.09 0.15 0.18 0.17 0.19 0.20 0.18 0.13 0.12 0.13 0.13 0.13 0.13 0.19 0.28 0.30 0.27 0.27 0.25 0.14 0.04 0.02 0.01 0.00 0.00 0.00 0.00 0.00 0.00 0.00 0.00 0.00 0.00 0.00 0.00 0.00 0.00
0.05 0.07 0.07 0.08 0.07 0.06 0.13 0.17 0.17 0.12 0.14 0.13 0.09 0.09 0.11 0.14 0.12 0.07 0.07 0.11 0.21 0.28 0.29 0.30 0.30 0.23 0.12 0.05 0.03 0.02 0.00 0.00 0.00 0.00 0.00 0.00 0.00 0.00 0.00 0.00 0.00 0.00 0.00
0.11 0.10 0.09 0.09 0.08 0.11 0.11 0.10 0.11 0.11 0.12 0.11 0.09 0.11 0.12 0.13 0.17 0.12 0.08 0.06 0.08 0.11 0.20 0.31 0.34 0.30 0.34 0.22 0.10 0.03 0.01 0.00 0.01 0.00 0.00 0.00 0.00 0.00 0.00 0.00 0.00 0.00 0.00
0.18 0.19 0.17 0.12 0.12 0.17 0.11 0.05 0.04 0.06 0.10 0.13 0.13 0.12 0.14 0.12 0.11 0.15 0.19 0.21 0.20 0.16 0.20 0.14 0.20 0.40 0.41 0.31 0.17 0.10 0.05 0.03 0.03 0.00 0.00 0.00 0.00 0.00 0.00 0.00 0.00 0.00 0.00
0.32 0.29 0.26 0.22 0.22 0.20 0.11 0.04 0.03 0.05 0.07 0.11 0.11 0.11 0.11 0.10 0.11 0.16 0.26 0.37 0.36 0.32 0.42 0.41 0.36 0.34 0.32 0.26 0.19 0.15 0.10 0.05 0.03 0.00 0.00 0.00 0.00 0.00 0.00 0.00 0.00 0.00 0.00
0.35 0.32 0.26 0.20 0.21 0.19 0.15 0.06 0.03 0.03 0.05 0.07 0.11 0.14 0.18 0.14 0.16 0.14 0.19 0.30 0.33 0.32 0.32 0.33 0.30 0.22 0.14 0.11 0.11 0.09 0.09 0.08 0.07 0.03 0.00 0.00 0.00 0.00 0.00 0.00 0.00 0.00 0.00